Location: Austin
(30.3000°N, 97.7500°W)
Time: 06:01:26
(UTC-06:00)

Cosmos 1743 - Pass Details

Date: 03 March 2026
Orbit: 391 x 394 km, 82.5° (Epoch: 6 March)

Event Time Altitude Azimuth Distance (km) Brightness Sun altitude
Rises 19:22:38 0° 190° (S) 2,271 6.1 -11.9°
Reaches altitude 10° 19:24:38 10° 194° (SSW) 1,421 5.1 -12.3°
Maximum altitude 19:27:41 64° 276° (W) 438 2.6 -12.9°
Drops below altitude 10° 19:30:46 10° 359° (N) 1,433 5.0 -13.6°
Sets 19:32:47 0° 3° (N) 2,293 6.0 -14.0°
